TimeCST,TemperatureF,Dew PointF,Humidity,Sea Level PressureIn,VisibilityMPH,Wind Direction,Wind SpeedMPH,Gust SpeedMPH,PrecipitationIn,Events,Conditions,WindDirDegrees,DateUTC
12:52 AM,39.9,32.0,73,29.83,10.0,West,16.1,28.8,N/A,,Scattered Clouds,270,2012-11-23 06:52:00
1:00 AM,39.2,30.2,70,29.83,10.0,West,11.5,28.8,N/A,,Mostly Cloudy,270,2012-11-23 07:00:00
1:38 AM,37.4,28.4,70,29.85,10.0,West,11.5,35.7,N/A,,Scattered Clouds,260,2012-11-23 07:38:00
1:52 AM,37.9,28.9,70,29.86,10.0,West,13.8,26.5,N/A,,Mostly Cloudy,270,2012-11-23 07:52:00
2:31 AM,37.4,28.4,70,29.84,10.0,West,9.2,26.5,N/A,,Scattered Clouds,260,2012-11-23 08:31:00
2:52 AM,37.0,27.0,67,29.85,10.0,West,11.5,28.8,N/A,,Clear,260,2012-11-23 08:52:00
3:52 AM,37.9,28.0,68,29.85,10.0,WSW,9.2,20.7,N/A,,Overcast,250,2012-11-23 09:52:00
4:52 AM,39.0,27.0,62,29.84,10.0,West,9.2,21.9,N/A,,Overcast,270,2012-11-23 10:52:00
5:52 AM,33.1,21.0,61,29.87,10.0,West,17.3,35.7,N/A,,Scattered Clouds,260,2012-11-23 11:52:00
7:33 AM,30.2,17.6,60,29.90,10.0,West,13.8,33.4,N/A,,Overcast,260,2012-11-23 13:33:00
7:52 AM,30.0,19.0,64,29.94,10.0,West,16.1,27.6,N/A,,Overcast,280,2012-11-23 13:52:00
8:00 AM,30.2,17.6,60,29.92,10.0,West,19.6,31.1,N/A,,Overcast,280,2012-11-23 14:00:00
8:52 AM,30.0,18.0,61,29.98,10.0,West,10.4,20.7,N/A,,Overcast,270,2012-11-23 14:52:00
9:52 AM,30.0,17.1,59,30.00,10.0,West,16.1,29.9,N/A,,Overcast,280,2012-11-23 15:52:00
10:52 AM,30.9,17.1,57,30.03,10.0,West,19.6,31.1,N/A,,Overcast,280,2012-11-23 16:52:00
11:52 AM,30.0,15.1,54,30.04,10.0,WNW,18.4,34.5,N/A,,Mostly Cloudy,290,2012-11-23 17:52:00
12:52 PM,33.1,15.1,48,30.05,10.0,WNW,20.7,31.1,N/A,,Scattered Clouds,300,2012-11-23 18:52:00
1:52 PM,32.0,15.1,50,30.08,10.0,West,16.1,25.3,N/A,,Overcast,280,2012-11-23 19:52:00
2:52 PM,30.9,16.0,54,30.11,10.0,WNW,16.1,26.5,N/A,,Overcast,300,2012-11-23 20:52:00
3:52 PM,30.0,16.0,56,30.15,10.0,WNW,9.2,18.4,N/A,,Overcast,300,2012-11-23 21:52:00
4:52 PM,28.9,16.0,58,30.17,10.0,WNW,15.0,23.0,N/A,,Overcast,290,2012-11-23 22:52:00
5:52 PM,28.9,16.0,58,30.19,10.0,WNW,13.8,23.0,N/A,,Overcast,290,2012-11-23 23:52:00
6:52 PM,28.0,16.0,61,30.21,10.0,WNW,9.2,19.6,N/A,,Overcast,300,2012-11-24 00:52:00
7:52 PM,28.0,16.0,61,30.22,10.0,WNW,12.7,21.9,N/A,,Overcast,300,2012-11-24 01:52:00
8:52 PM,28.0,16.0,61,30.22,10.0,WNW,10.4,20.7,N/A,,Overcast,300,2012-11-24 02:52:00
9:52 PM,28.0,16.0,61,30.22,10.0,NW,11.5,17.3,N/A,,Overcast,310,2012-11-24 03:52:00
10:52 PM,27.0,16.0,63,30.22,10.0,NW,8.1,19.6,N/A,,Overcast,310,2012-11-24 04:52:00
11:52 PM,27.0,16.0,63,30.23,10.0,NW,9.2,-,N/A,,Overcast,310,2012-11-24 05:52:00